| time (UTC) | temp F | wind direction | speed MPH | gust MPH | rain 1hr in | rain 24hr in | rain mn in | humidity % | barometer mb |
| 20260503050034 | 54 | 18 | 0.0 | 4.0 | 0.00 | 0.00 | 0.00 | 53 | 1014.4 |
| 20260503044533 | 53 | 13 | 2.0 | 5.0 | 0.00 | 0.00 | 0.00 | 54 | 1014.8 |
| 20260503043029 | 50 | 62 | 0.0 | 0.0 | 0.00 | 0.00 | 0.00 | 59 | 1014.9 |
| 20260503041528 | 50 | 65 | 0.0 | 0.0 | 0.00 | 0.00 | 0.00 | 61 | 1015.1 |
| 20260503040026 | 50 | 68 | 0.0 | 2.0 | 0.00 | 0.00 | 0.00 | 62 | 1015.2 |
| 20260503034526 | 50 | 66 | 0.0 | 0.0 | 0.00 | 0.00 | 0.00 | 62 | 1015.4 |
| 20260503033034 | 50 | 65 | 0.0 | 1.0 | 0.00 | 0.00 | 0.00 | 62 | 1015.5 |
| 20260503031523 | 50 | 68 | 0.0 | 0.0 | 0.00 | 0.00 | 0.00 | 63 | 1015.6 |
| 20260503030043 | 51 | 63 | 0.0 | 0.0 | 0.00 | 0.00 | 0.00 | 63 | 1015.6 |
| 20260503024530 | 51 | 60 | 0.0 | 0.0 | 0.00 | 0.00 | 0.00 | 62 | 1015.5 |
| 20260503023022 | 51 | 63 | 0.0 | 0.0 | 0.00 | 0.00 | 0.00 | 62 | 1015.5 |
| 20260503021526 | 52 | 16 | 0.0 | 0.0 | 0.00 | 0.00 | 0.00 | 61 | 1015.6 |
| 20260503020022 | 53 | 16 | 0.0 | 0.0 | 0.00 | 0.00 | 0.00 | 58 | 1015.6 |
| 20260503014521 | 54 | 18 | 0.0 | 2.0 | 0.00 | 0.00 | 0.00 | 56 | 1015.4 |
| 20260503013020 | 56 | 17 | 1.0 | 2.0 | 0.00 | 0.00 | 0.00 | 53 | 1015.5 |
| 20260503011519 | 58 | 17 | 0.0 | 0.0 | 0.00 | 0.00 | 0.00 | 49 | 1015.5 |
| 20260503010021 | 60 | 16 | 0.0 | 0.0 | 0.00 | 0.00 | 0.00 | 45 | 1015.5 |
| 20260503004520 | 62 | 18 | 0.0 | 1.0 | 0.00 | 0.00 | 0.00 | 41 | 1015.5 |
| 20260503003019 | 63 | 23 | 1.0 | 4.0 | 0.00 | 0.00 | 0.00 | 35 | 1015.5 |
| 20260503001516 | 64 | 30 | 2.0 | 5.0 | 0.00 | 0.00 | 0.00 | 34 | 1015.6 |
| 20260503000027 | 65 | 359 | 2.0 | 4.0 | 0.00 | 0.00 | 0.00 | 32 | 1015.9 |
| 20260502234514 | 65 | 359 | 2.0 | 9.0 | 0.00 | 0.00 | 0.00 | 31 | 1016.0 |
| 20260502233012 | 66 | 81 | 1.0 | 4.0 | 0.00 | 0.00 | 0.00 | 30 | 1016.0 |
| 20260502231512 | 66 | 52 | 1.0 | 7.0 | 0.00 | 0.00 | 0.00 | 30 | 1015.9 |
| 20260502230010 | 66 | 359 | 1.0 | 6.0 | 0.00 | 0.00 | 0.00 | 29 | 1016.1 |
| 20260502224509 | 66 | 359 | 3.0 | 9.0 | 0.00 | 0.00 | 0.00 | 31 | 1016.1 |
| 20260502223010 | 65 | 359 | 1.0 | 7.0 | 0.00 | 0.00 | 0.00 | 32 | 1016.2 |
| 20260502221506 | 66 | 359 | 1.0 | 7.0 | 0.00 | 0.00 | 0.00 | 31 | 1016.4 |
| 20260502220004 | 65 | 359 | 3.0 | 8.0 | 0.00 | 0.00 | 0.00 | 33 | 1016.5 |
| 20260502214502 | 65 | 359 | 4.0 | 10.0 | 0.00 | 0.00 | 0.00 | 33 | 1016.6 |
| 20260502213100 | 65 | 359 | 3.0 | 7.0 | 0.00 | 0.00 | 0.00 | 30 | 1016.9 |
| 20260502211600 | 65 | 359 | 2.0 | 9.0 | 0.00 | 0.00 | 0.00 | 30 | 1017.0 |
| 20260502210057 | 65 | 8 | 2.0 | 7.0 | 0.00 | 0.00 | 0.00 | 33 | 1017.0 |
| 20260502204609 | 64 | 359 | 4.0 | 10.0 | 0.00 | 0.00 | 0.00 | 31 | 1017.3 |
| 20260502203113 | 64 | 359 | 2.0 | 9.0 | 0.00 | 0.00 | 0.00 | 31 | 1017.5 |
| 20260502201553 | 64 | 28 | 1.0 | 6.0 | 0.00 | 0.00 | 0.00 | 34 | 1017.6 |
| 20260502200051 | 63 | 359 | 2.0 | 6.0 | 0.00 | 0.00 | 0.00 | 32 | 1017.7 |
| 20260502194554 | 63 | 359 | 3.0 | 8.0 | 0.00 | 0.00 | 0.00 | 32 | 1017.9 |
| 20260502193048 | 62 | 359 | 1.0 | 6.0 | 0.00 | 0.00 | 0.00 | 33 | 1018.1 |
| 20260502191552 | 62 | 43 | 6.0 | 15.0 | 0.00 | 0.00 | 0.00 | 39 | 1018.1 |
| 20260502190045 | 62 | 27 | 3.0 | 8.0 | 0.00 | 0.00 | 0.00 | 36 | 1018.3 |
| 20260502184543 | 61 | 359 | 2.0 | 9.0 | 0.00 | 0.00 | 0.00 | 33 | 1018.5 |
| 20260502183042 | 61 | 27 | 4.0 | 11.0 | 0.00 | 0.00 | 0.00 | 35 | 1018.6 |
| 20260502181600 | 61 | 39 | 4.0 | 9.0 | 0.00 | 0.00 | 0.00 | 36 | 1019.0 |
| 20260502163033 | 58 | 359 | 1.0 | 7.0 | 0.00 | 0.00 | 0.00 | 40 | 1019.7 |
| 20260502161531 | 58 | 9 | 3.0 | 8.0 | 0.00 | 0.00 | 0.00 | 36 | 1019.7 |
| 20260502151523 | 56 | 359 | 3.0 | 8.0 | 0.00 | 0.00 | 0.00 | 41 | 1019.8 |
| 20260502123054 | 42 | 21 | 1.0 | 3.0 | 0.00 | 0.00 | 0.00 | 70 | 1019.3 |
| 20260502121553 | 41 | 308 | 0.0 | 3.0 | 0.00 | 0.00 | 0.00 | 73 | 1019.2 |
| 20260502114553 | 39 | 312 | 0.0 | 0.0 | 0.00 | 0.00 | 0.00 | 75 | 1018.9 |
| 20260502113051 | 39 | 312 | 0.0 | 0.0 | 0.00 | 0.00 | 0.00 | 74 | 1018.7 |
| 20260502111544 | 39 | 312 | 0.0 | 0.0 | 0.00 | 0.00 | 0.00 | 72 | 1018.5 |
| 20260502110044 | 40 | 312 | 0.0 | 3.0 | 0.00 | 0.00 | 0.00 | 71 | 1018.5 |
| 20260502104541 | 41 | 77 | 0.0 | 3.0 | 0.00 | 0.00 | 0.00 | 69 | 1018.4 |
| 20260502103037 | 41 | 100 | 0.0 | 0.0 | 0.00 | 0.00 | 0.00 | 67 | 1018.3 |
| 20260502101538 | 42 | 359 | 1.0 | 3.0 | 0.00 | 0.00 | 0.00 | 67 | 1018.2 |
| 20260502091527 | 43 | 114 | 0.0 | 0.0 | 0.00 | 0.00 | 0.00 | 64 | 1017.7 |
| 20260502071518 | 45 | 29 | 0.0 | 0.0 | 0.00 | 0.00 | 0.00 | 58 | 1017.4 |
| 20260502070017 | 46 | 29 | 0.0 | 0.0 | 0.00 | 0.00 | 0.00 | 57 | 1017.6 |
| 20260502064534 | 46 | 25 | 0.0 | 3.0 | 0.00 | 0.00 | 0.00 | 57 | 1017.6 |
| 20260502063018 | 45 | 28 | 0.0 | 0.0 | 0.00 | 0.00 | 0.00 | 60 | 1017.7 |
| 20260502061514 | 44 | 303 | 0.0 | 2.0 | 0.00 | 0.00 | 0.00 | 63 | 1017.7 |
| 20260502060014 | 45 | 304 | 0.0 | 0.0 | 0.00 | 0.00 | 0.00 | 63 | 1017.8 |
| 20260502054507 | 46 | 212 | 0.0 | 0.0 | 0.00 | 0.00 | 0.00 | 60 | 1017.6 |
| 20260502053005 | 47 | 212 | 0.0 | 0.0 | 0.00 | 0.00 | 0.00 | 57 | 1017.6 |
| 20260502051503 | 47 | 221 | 0.0 | 3.0 | 0.00 | 0.00 | 0.00 | 57 | 1017.6 |